| time (UTC) | temp F | wind direction | speed MPH | gust MPH | rain 1hr in | rain 24hr in | rain mn in | humidity % | barometer mb |
| 20260508093101 | 74 | 0 | 0.0 | 0.0 | 0.00 | 0.00 | 0.00 | 90 | 1015.0 |
| 20260508092541 | 74 | 0 | 0.0 | 0.0 | 0.00 | 0.00 | 0.00 | 90 | 1015.0 |
| 20260508092041 | 74 | 0 | 0.0 | 0.0 | 0.00 | 0.00 | 0.00 | 90 | 1015.1 |
| 20260508091556 | 74 | 0 | 0.0 | 0.0 | 0.00 | 0.00 | 0.00 | 90 | 1015.0 |
| 20260508091042 | 75 | 0 | 0.0 | 0.0 | 0.00 | 0.00 | 0.00 | 90 | 1015.0 |
| 20260508090539 | 75 | 0 | 0.0 | 0.0 | 0.00 | 0.00 | 0.00 | 90 | 1014.9 |
| 20260508090108 | 75 | 0 | 0.0 | 0.0 | 0.00 | 0.00 | 0.00 | 90 | 1014.9 |
| 20260508085541 | 75 | 0 | 0.0 | 0.0 | 0.00 | 0.00 | 0.00 | 90 | 1014.9 |
| 20260508085038 | 75 | 0 | 0.0 | 0.0 | 0.00 | 0.00 | 0.00 | 90 | 1014.9 |
| 20260508084553 | 75 | 0 | 0.0 | 0.0 | 0.00 | 0.00 | 0.00 | 90 | 1014.9 |
| 20260508084038 | 75 | 0 | 0.0 | 0.0 | 0.00 | 0.00 | 0.00 | 90 | 1014.9 |
| 20260508083545 | 75 | 0 | 0.0 | 0.0 | 0.00 | 0.00 | 0.00 | 90 | 1015.0 |
| 20260508083053 | 75 | 0 | 0.0 | 1.0 | 0.00 | 0.00 | 0.00 | 90 | 1015.0 |
| 20260508082540 | 75 | 0 | 0.0 | 1.0 | 0.00 | 0.00 | 0.00 | 90 | 1015.0 |
| 20260508082041 | 75 | 0 | 0.0 | 1.0 | 0.00 | 0.00 | 0.00 | 90 | 1015.1 |
| 20260508081548 | 75 | 0 | 0.0 | 0.0 | 0.00 | 0.00 | 0.00 | 90 | 1015.0 |
| 20260508081042 | 75 | 0 | 0.0 | 2.0 | 0.00 | 0.00 | 0.00 | 90 | 1015.0 |
| 20260508080541 | 75 | 0 | 0.0 | 2.0 | 0.00 | 0.00 | 0.00 | 90 | 1015.0 |
| 20260508080056 | 75 | 0 | 0.0 | 0.0 | 0.00 | 0.00 | 0.00 | 90 | 1015.0 |
| 20260508075541 | 75 | 0 | 0.0 | 0.0 | 0.00 | 0.00 | 0.00 | 90 | 1014.9 |
| 20260508075044 | 75 | 0 | 0.0 | 0.0 | 0.00 | 0.00 | 0.00 | 90 | 1015.0 |
| 20260508074550 | 76 | 0 | 0.0 | 0.0 | 0.00 | 0.00 | 0.00 | 90 | 1015.0 |
| 20260508074042 | 76 | 0 | 0.0 | 0.0 | 0.00 | 0.00 | 0.00 | 90 | 1015.0 |
| 20260508073541 | 75 | 0 | 0.0 | 0.0 | 0.00 | 0.00 | 0.00 | 90 | 1015.2 |
| 20260508073049 | 76 | 0 | 0.0 | 2.0 | 0.00 | 0.00 | 0.00 | 90 | 1015.1 |
| 20260508072543 | 75 | 0 | 0.0 | 2.0 | 0.00 | 0.00 | 0.00 | 90 | 1015.2 |
| 20260508072043 | 75 | 0 | 0.0 | 3.0 | 0.00 | 0.00 | 0.00 | 90 | 1015.1 |
| 20260508071556 | 75 | 0 | 0.0 | 3.0 | 0.00 | 0.00 | 0.00 | 90 | 1015.1 |
| 20260508071040 | 75 | 0 | 0.0 | 2.0 | 0.00 | 0.00 | 0.00 | 90 | 1015.1 |
| 20260508070544 | 75 | 0 | 0.0 | 2.0 | 0.00 | 0.00 | 0.00 | 90 | 1015.1 |
| 20260508070056 | 75 | 0 | 0.0 | 1.0 | 0.00 | 0.00 | 0.00 | 90 | 1015.2 |
| 20260508065540 | 75 | 0 | 0.0 | 2.0 | 0.00 | 0.00 | 0.00 | 90 | 1015.2 |
| 20260508065042 | 75 | 0 | 0.0 | 2.0 | 0.00 | 0.00 | 0.00 | 90 | 1015.2 |
| 20260508064557 | 75 | 0 | 0.0 | 2.0 | 0.00 | 0.00 | 0.00 | 90 | 1015.2 |
| 20260508064043 | 74 | 0 | 0.0 | 2.0 | 0.00 | 0.00 | 0.00 | 90 | 1015.3 |
| 20260508063541 | 74 | 0 | 0.0 | 2.0 | 0.00 | 0.00 | 0.00 | 89 | 1015.3 |
| 20260508063054 | 74 | 0 | 0.0 | 1.0 | 0.00 | 0.00 | 0.00 | 89 | 1015.4 |
| 20260508062543 | 74 | 0 | 0.0 | 1.0 | 0.00 | 0.00 | 0.00 | 89 | 1015.4 |
| 20260508062043 | 74 | 0 | 0.0 | 1.0 | 0.00 | 0.00 | 0.00 | 89 | 1015.3 |
| 20260508061605 | 74 | 0 | 0.0 | 0.0 | 0.00 | 0.00 | 0.00 | 89 | 1015.4 |
| 20260508061040 | 74 | 0 | 0.0 | 0.0 | 0.00 | 0.00 | 0.00 | 88 | 1015.3 |
| 20260508060541 | 74 | 0 | 0.0 | 0.0 | 0.00 | 0.00 | 0.00 | 88 | 1015.3 |
| 20260508060056 | 74 | 0 | 0.0 | 0.0 | 0.00 | 0.00 | 0.00 | 89 | 1015.4 |
| 20260508055545 | 75 | 0 | 0.0 | 0.0 | 0.00 | 0.00 | 0.00 | 89 | 1015.4 |
| 20260508055044 | 75 | 0 | 0.0 | 0.0 | 0.00 | 0.00 | 0.00 | 89 | 1015.4 |
| 20260508054623 | 75 | 0 | 0.0 | 0.0 | 0.00 | 0.00 | 0.00 | 89 | 1015.4 |
| 20260508054043 | 75 | 0 | 0.0 | 1.0 | 0.00 | 0.00 | 0.00 | 88 | 1015.5 |
| 20260508053543 | 75 | 0 | 0.0 | 1.0 | 0.00 | 0.00 | 0.00 | 89 | 1015.6 |
| 20260508053053 | 75 | 0 | 0.0 | 1.0 | 0.00 | 0.00 | 0.00 | 89 | 1015.7 |
| 20260508052541 | 75 | 0 | 0.0 | 1.0 | 0.00 | 0.00 | 0.00 | 89 | 1015.7 |
| 20260508052043 | 75 | 0 | 0.0 | 1.0 | 0.00 | 0.00 | 0.00 | 88 | 1015.8 |
| 20260508051552 | 76 | 0 | 0.0 | 1.0 | 0.00 | 0.00 | 0.00 | 89 | 1015.8 |
| 20260508051043 | 76 | 0 | 0.0 | 0.0 | 0.00 | 0.00 | 0.00 | 88 | 1015.8 |
| 20260508050541 | 76 | 0 | 0.0 | 0.0 | 0.00 | 0.00 | 0.00 | 89 | 1015.8 |
| 20260508050054 | 76 | 0 | 0.0 | 1.0 | 0.00 | 0.00 | 0.00 | 89 | 1016.0 |
| 20260508045543 | 76 | 0 | 0.0 | 1.0 | 0.00 | 0.00 | 0.00 | 88 | 1015.9 |
| 20260508045043 | 76 | 0 | 0.0 | 0.0 | 0.00 | 0.00 | 0.00 | 88 | 1015.9 |
| 20260508044558 | 76 | 0 | 0.0 | 1.0 | 0.00 | 0.00 | 0.00 | 88 | 1016.0 |
| 20260508044042 | 76 | 0 | 0.0 | 1.0 | 0.00 | 0.00 | 0.00 | 88 | 1015.9 |
| 20260508043540 | 76 | 0 | 0.0 | 1.0 | 0.00 | 0.00 | 0.00 | 88 | 1016.0 |
| 20260508043048 | 77 | 0 | 0.0 | 1.0 | 0.00 | 0.00 | 0.00 | 88 | 1015.9 |
| 20260508042541 | 77 | 0 | 0.0 | 1.0 | 0.00 | 0.00 | 0.00 | 88 | 1016.0 |
| 20260508042040 | 77 | 0 | 0.0 | 1.0 | 0.00 | 0.00 | 0.00 | 88 | 1016.1 |
| 20260508041556 | 77 | 0 | 0.0 | 1.0 | 0.00 | 0.00 | 0.00 | 88 | 1016.1 |
| 20260508041040 | 77 | 0 | 0.0 | 1.0 | 0.00 | 0.00 | 0.00 | 88 | 1016.1 |
| 20260508040541 | 77 | 0 | 0.0 | 3.0 | 0.00 | 0.00 | 0.00 | 88 | 1016.1 |
| 20260508040058 | 77 | 0 | 0.0 | 3.0 | 0.00 | 0.00 | 0.00 | 88 | 1016.2 |
| 20260508035541 | 77 | 0 | 0.0 | 3.0 | 0.00 | 0.00 | 0.00 | 88 | 1016.1 |
| 20260508035041 | 77 | 0 | 0.0 | 3.0 | 0.00 | 0.00 | 0.00 | 88 | 1016.2 |
| 20260508034601 | 77 | 0 | 0.0 | 3.0 | 0.00 | 0.00 | 0.00 | 88 | 1016.3 |
| 20260508034039 | 77 | 0 | 0.0 | 3.0 | 0.00 | 0.00 | 0.00 | 88 | 1016.1 |
| 20260508033541 | 77 | 0 | 0.0 | 2.0 | 0.00 | 0.00 | 0.00 | 88 | 1016.1 |
| 20260508033049 | 77 | 319 | 0.0 | 2.0 | 0.00 | 0.00 | 0.00 | 87 | 1016.1 |
| 20260508032543 | 78 | 0 | 0.0 | 2.0 | 0.00 | 0.00 | 0.00 | 87 | 1016.0 |
| 20260508032042 | 78 | 0 | 0.0 | 2.0 | 0.00 | 0.00 | 0.00 | 87 | 1016.1 |
| 20260508031558 | 78 | 0 | 0.0 | 2.0 | 0.00 | 0.00 | 0.00 | 87 | 1016.1 |
| 20260508031037 | 78 | 220 | 0.0 | 3.0 | 0.00 | 0.00 | 0.00 | 87 | 1016.1 |
| 20260508030538 | 78 | 0 | 0.0 | 3.0 | 0.00 | 0.00 | 0.00 | 87 | 1016.1 |
| 20260508030106 | 78 | 326 | 0.0 | 4.0 | 0.00 | 0.00 | 0.00 | 87 | 1016.2 |
| 20260508025540 | 78 | 0 | 0.0 | 4.0 | 0.00 | 0.00 | 0.00 | 87 | 1016.1 |
| 20260508025044 | 78 | 0 | 0.0 | 3.0 | 0.00 | 0.00 | 0.00 | 87 | 1016.1 |
| 20260508024605 | 78 | 0 | 0.0 | 2.0 | 0.00 | 0.00 | 0.00 | 87 | 1016.1 |
| 20260508024040 | 78 | 0 | 0.0 | 3.0 | 0.00 | 0.00 | 0.00 | 87 | 1015.9 |
| 20260508023543 | 78 | 0 | 0.0 | 3.0 | 0.00 | 0.00 | 0.00 | 87 | 1016.0 |
| 20260508023049 | 78 | 0 | 0.0 | 3.0 | 0.00 | 0.00 | 0.00 | 87 | 1015.8 |
| 20260508022541 | 78 | 0 | 0.0 | 2.0 | 0.00 | 0.00 | 0.00 | 86 | 1015.8 |
| 20260508022038 | 78 | 0 | 0.0 | 2.0 | 0.00 | 0.00 | 0.00 | 86 | 1015.8 |
| 20260508021554 | 78 | 0 | 0.0 | 2.0 | 0.00 | 0.00 | 0.00 | 86 | 1015.9 |
| 20260508021040 | 78 | 0 | 0.0 | 0.0 | 0.00 | 0.00 | 0.00 | 86 | 1015.7 |
| 20260508020541 | 78 | 0 | 0.0 | 1.0 | 0.00 | 0.00 | 0.00 | 85 | 1015.7 |
| 20260508020050 | 78 | 0 | 0.0 | 3.0 | 0.00 | 0.00 | 0.00 | 85 | 1015.7 |
| 20260508015540 | 78 | 0 | 0.0 | 3.0 | 0.00 | 0.00 | 0.00 | 85 | 1015.7 |
| 20260508015040 | 78 | 0 | 0.0 | 1.0 | 0.00 | 0.00 | 0.00 | 85 | 1015.7 |
| 20260508014550 | 78 | 0 | 0.0 | 1.0 | 0.00 | 0.00 | 0.00 | 85 | 1015.8 |
| 20260508014038 | 78 | 0 | 0.0 | 1.0 | 0.00 | 0.00 | 0.00 | 85 | 1015.9 |
| 20260508013544 | 78 | 0 | 0.0 | 1.0 | 0.00 | 0.00 | 0.00 | 84 | 1015.8 |
| 20260508013058 | 79 | 0 | 0.0 | 1.0 | 0.00 | 0.00 | 0.00 | 84 | 1015.8 |
| 20260508012540 | 79 | 0 | 0.0 | 1.0 | 0.00 | 0.00 | 0.00 | 84 | 1015.7 |
| 20260508012044 | 79 | 0 | 0.0 | 1.0 | 0.00 | 0.00 | 0.00 | 84 | 1015.7 |
| 20260508011557 | 79 | 0 | 0.0 | 1.0 | 0.00 | 0.00 | 0.00 | 84 | 1015.7 |
| 20260508011040 | 79 | 0 | 0.0 | 1.0 | 0.00 | 0.00 | 0.00 | 83 | 1015.8 |
| 20260508010538 | 79 | 0 | 0.0 | 1.0 | 0.00 | 0.00 | 0.00 | 83 | 1015.8 |
| 20260508010046 | 79 | 0 | 0.0 | 0.0 | 0.00 | 0.00 | 0.00 | 83 | 1015.8 |
| 20260508005541 | 80 | 0 | 0.0 | 1.0 | 0.00 | 0.00 | 0.00 | 82 | 1015.7 |
| 20260508005044 | 80 | 0 | 0.0 | 2.0 | 0.00 | 0.00 | 0.00 | 82 | 1015.7 |
| 20260508004558 | 80 | 277 | 0.0 | 2.0 | 0.00 | 0.00 | 0.00 | 82 | 1015.7 |
| 20260508004043 | 80 | 0 | 0.0 | 1.0 | 0.00 | 0.00 | 0.00 | 82 | 1015.8 |
| 20260508003538 | 81 | 0 | 0.0 | 2.0 | 0.00 | 0.00 | 0.00 | 81 | 1015.7 |
| 20260508003103 | 81 | 0 | 0.0 | 2.0 | 0.00 | 0.00 | 0.00 | 81 | 1015.8 |
| 20260508002540 | 81 | 0 | 0.0 | 3.0 | 0.00 | 0.00 | 0.00 | 81 | 1015.8 |
| 20260508002038 | 81 | 0 | 0.0 | 3.0 | 0.00 | 0.00 | 0.00 | 81 | 1015.8 |
| 20260508001554 | 81 | 0 | 0.0 | 3.0 | 0.00 | 0.00 | 0.00 | 80 | 1015.8 |
| 20260508001041 | 82 | 280 | 0.0 | 4.0 | 0.00 | 0.00 | 0.00 | 79 | 1015.8 |
| 20260508000540 | 82 | 0 | 1.0 | 4.0 | 0.00 | 0.00 | 0.00 | 79 | 1015.8 |
| 20260508000052 | 82 | 288 | 1.0 | 4.0 | 0.00 | 0.00 | 0.00 | 79 | 1015.8 |
| 20260507235541 | 82 | 0 | 0.0 | 4.0 | 0.00 | 0.00 | 0.00 | 78 | 1015.8 |
| 20260507235041 | 83 | 258 | 1.0 | 4.0 | 0.00 | 0.00 | 0.00 | 78 | 1015.9 |
| 20260507234550 | 83 | 0 | 1.0 | 4.0 | 0.00 | 0.00 | 0.00 | 77 | 1015.8 |
| 20260507234040 | 83 | 250 | 0.0 | 5.0 | 0.00 | 0.00 | 0.00 | 76 | 1015.8 |
| 20260507233541 | 83 | 234 | 1.0 | 5.0 | 0.00 | 0.00 | 0.00 | 75 | 1015.8 |
| 20260507233052 | 84 | 291 | 1.0 | 6.0 | 0.00 | 0.00 | 0.00 | 74 | 1015.7 |
| 20260507232545 | 84 | 0 | 1.0 | 6.0 | 0.00 | 0.00 | 0.00 | 74 | 1015.6 |
| 20260507232040 | 84 | 276 | 1.0 | 7.0 | 0.00 | 0.00 | 0.00 | 73 | 1015.6 |
| 20260507231558 | 85 | 283 | 1.0 | 7.0 | 0.00 | 0.00 | 0.00 | 72 | 1015.6 |
| 20260507231038 | 85 | 257 | 1.0 | 9.0 | 0.00 | 0.00 | 0.00 | 70 | 1015.6 |
| 20260507230541 | 86 | 264 | 1.0 | 9.0 | 0.00 | 0.00 | 0.00 | 70 | 1015.5 |
| 20260507230057 | 86 | 300 | 3.0 | 9.0 | 0.00 | 0.00 | 0.00 | 69 | 1015.4 |
| 20260507225538 | 87 | 281 | 1.0 | 7.0 | 0.00 | 0.00 | 0.00 | 68 | 1015.4 |
| 20260507225038 | 87 | 240 | 2.0 | 9.0 | 0.00 | 0.00 | 0.00 | 68 | 1015.5 |
| 20260507224558 | 87 | 261 | 2.0 | 9.0 | 0.00 | 0.00 | 0.00 | 68 | 1015.4 |
| 20260507224038 | 88 | 239 | 4.0 | 9.0 | 0.00 | 0.00 | 0.00 | 65 | 1015.4 |
| 20260507223538 | 88 | 197 | 2.0 | 6.0 | 0.00 | 0.00 | 0.00 | 64 | 1015.4 |
| 20260507223049 | 88 | 249 | 1.0 | 8.0 | 0.00 | 0.00 | 0.00 | 65 | 1015.3 |
| 20260507222538 | 88 | 360 | 3.0 | 8.0 | 0.00 | 0.00 | 0.00 | 63 | 1015.3 |
| 20260507222040 | 88 | 254 | 3.0 | 7.0 | 0.00 | 0.00 | 0.00 | 60 | 1015.3 |
| 20260507221550 | 88 | 207 | 3.0 | 7.0 | 0.00 | 0.00 | 0.00 | 61 | 1015.3 |
| 20260507221041 | 89 | 207 | 2.0 | 8.0 | 0.00 | 0.00 | 0.00 | 63 | 1015.3 |
| 20260507220541 | 89 | 279 | 3.0 | 8.0 | 0.00 | 0.00 | 0.00 | 65 | 1015.4 |
| 20260507220053 | 89 | 265 | 2.0 | 7.0 | 0.00 | 0.00 | 0.00 | 64 | 1015.4 |
| 20260507215543 | 89 | 298 | 2.0 | 7.0 | 0.00 | 0.00 | 0.00 | 64 | 1015.4 |
| 20260507215041 | 89 | 256 | 2.0 | 10.0 | 0.00 | 0.00 | 0.00 | 63 | 1015.4 |
| 20260507214553 | 89 | 238 | 1.0 | 10.0 | 0.00 | 0.00 | 0.00 | 64 | 1015.3 |
| 20260507214041 | 89 | 30 | 3.0 | 11.0 | 0.00 | 0.00 | 0.00 | 62 | 1015.2 |
| 20260507213541 | 89 | 242 | 3.0 | 11.0 | 0.00 | 0.00 | 0.00 | 64 | 1015.3 |
| 20260507213056 | 89 | 262 | 3.0 | 11.0 | 0.00 | 0.00 | 0.00 | 61 | 1015.3 |
| 20260507212542 | 89 | 259 | 2.0 | 9.0 | 0.00 | 0.00 | 0.00 | 63 | 1015.4 |
| 20260507212040 | 89 | 282 | 4.0 | 9.0 | 0.00 | 0.00 | 0.00 | 64 | 1015.4 |
| 20260507211553 | 89 | 166 | 4.0 | 9.0 | 0.00 | 0.00 | 0.00 | 65 | 1015.4 |
| 20260507211039 | 89 | 292 | 3.0 | 10.0 | 0.00 | 0.00 | 0.00 | 67 | 1015.5 |
| 20260507210540 | 89 | 259 | 2.0 | 10.0 | 0.00 | 0.00 | 0.00 | 67 | 1015.4 |
| 20260507210119 | 90 | 325 | 3.0 | 9.0 | 0.00 | 0.00 | 0.00 | 64 | 1015.5 |
| 20260507205540 | 90 | 318 | 2.0 | 9.0 | 0.00 | 0.00 | 0.00 | 67 | 1015.5 |
| 20260507205046 | 90 | 332 | 3.0 | 9.0 | 0.00 | 0.00 | 0.00 | 64 | 1015.6 |
| 20260507204600 | 90 | 258 | 3.0 | 8.0 | 0.00 | 0.00 | 0.00 | 65 | 1015.5 |
| 20260507204040 | 90 | 205 | 3.0 | 10.0 | 0.00 | 0.00 | 0.00 | 65 | 1015.5 |
| 20260507203541 | 90 | 271 | 3.0 | 12.0 | 0.00 | 0.00 | 0.00 | 63 | 1015.6 |
| 20260507203058 | 90 | 286 | 3.0 | 12.0 | 0.00 | 0.00 | 0.00 | 61 | 1015.6 |
| 20260507202542 | 90 | 221 | 3.0 | 9.0 | 0.00 | 0.00 | 0.00 | 64 | 1015.5 |
| 20260507202039 | 90 | 264 | 4.0 | 9.0 | 0.00 | 0.00 | 0.00 | 61 | 1015.6 |
| 20260507201548 | 90 | 333 | 3.0 | 10.0 | 0.00 | 0.00 | 0.00 | 64 | 1015.5 |
| 20260507201042 | 90 | 182 | 2.0 | 10.0 | 0.00 | 0.00 | 0.00 | 61 | 1015.7 |
| 20260507200542 | 91 | 240 | 4.0 | 9.0 | 0.00 | 0.00 | 0.00 | 63 | 1015.7 |
| 20260507195546 | 90 | 32 | 3.0 | 10.0 | 0.00 | 0.00 | 0.00 | 64 | 1015.8 |
| 20260507195042 | 91 | 259 | 1.0 | 8.0 | 0.00 | 0.00 | 0.00 | 65 | 1016.0 |
| 20260507194549 | 90 | 252 | 2.0 | 8.0 | 0.00 | 0.00 | 0.00 | 65 | 1016.0 |
| 20260507194041 | 90 | 244 | 2.0 | 8.0 | 0.00 | 0.00 | 0.00 | 64 | 1015.9 |
| 20260507193541 | 90 | 237 | 2.0 | 8.0 | 0.00 | 0.00 | 0.00 | 65 | 1015.9 |
| 20260507193113 | 90 | 242 | 3.0 | 8.0 | 0.00 | 0.00 | 0.00 | 66 | 1016.1 |
| 20260507192542 | 89 | 317 | 2.0 | 10.0 | 0.00 | 0.00 | 0.00 | 66 | 1016.0 |
| 20260507192046 | 89 | 335 | 3.0 | 10.0 | 0.00 | 0.00 | 0.00 | 66 | 1016.1 |
| 20260507191557 | 89 | 234 | 2.0 | 10.0 | 0.00 | 0.00 | 0.00 | 68 | 1016.2 |
| 20260507191040 | 89 | 225 | 3.0 | 10.0 | 0.00 | 0.00 | 0.00 | 70 | 1016.2 |
| 20260507190542 | 90 | 194 | 3.0 | 10.0 | 0.00 | 0.00 | 0.00 | 70 | 1016.3 |
| 20260507190047 | 89 | 116 | 2.0 | 12.0 | 0.00 | 0.00 | 0.00 | 70 | 1016.4 |
| 20260507185543 | 89 | 267 | 2.0 | 12.0 | 0.00 | 0.00 | 0.00 | 63 | 1016.5 |
| 20260507185040 | 89 | 314 | 5.0 | 12.0 | 0.00 | 0.00 | 0.00 | 61 | 1016.5 |
| 20260507184554 | 89 | 294 | 4.0 | 10.0 | 0.00 | 0.00 | 0.00 | 62 | 1016.6 |
| 20260507184043 | 89 | 319 | 3.0 | 10.0 | 0.00 | 0.00 | 0.00 | 62 | 1016.7 |
| 20260507183540 | 89 | 285 | 2.0 | 9.0 | 0.00 | 0.00 | 0.00 | 65 | 1016.8 |
| 20260507183059 | 89 | 261 | 2.0 | 9.0 | 0.00 | 0.00 | 0.00 | 67 | 1016.8 |
| 20260507182541 | 89 | 277 | 2.0 | 8.0 | 0.00 | 0.00 | 0.00 | 65 | 1017.0 |
| 20260507182041 | 89 | 224 | 3.0 | 8.0 | 0.00 | 0.00 | 0.00 | 72 | 1017.0 |
| 20260507181554 | 89 | 279 | 2.0 | 7.0 | 0.00 | 0.00 | 0.00 | 73 | 1017.1 |
| 20260507181040 | 88 | 222 | 2.0 | 7.0 | 0.00 | 0.00 | 0.00 | 72 | 1017.1 |
| 20260507180541 | 88 | 35 | 2.0 | 7.0 | 0.00 | 0.00 | 0.00 | 72 | 1017.2 |
| 20260507180056 | 88 | 293 | 2.0 | 7.0 | 0.00 | 0.00 | 0.00 | 72 | 1017.3 |
| 20260507175540 | 88 | 148 | 3.0 | 7.0 | 0.00 | 0.00 | 0.00 | 72 | 1017.4 |
| 20260507175040 | 88 | 261 | 1.0 | 7.0 | 0.00 | 0.00 | 0.00 | 71 | 1017.5 |
| 20260507174554 | 88 | 227 | 2.0 | 6.0 | 0.00 | 0.00 | 0.00 | 72 | 1017.6 |
| 20260507174041 | 88 | 132 | 2.0 | 7.0 | 0.00 | 0.00 | 0.00 | 73 | 1017.4 |
| 20260507173545 | 87 | 195 | 2.0 | 7.0 | 0.00 | 0.00 | 0.00 | 72 | 1017.4 |
| 20260507173123 | 87 | 201 | 2.0 | 11.0 | 0.00 | 0.00 | 0.00 | 72 | 1017.4 |
| 20260507172543 | 87 | 216 | 2.0 | 11.0 | 0.00 | 0.00 | 0.00 | 71 | 1017.6 |
| 20260507172040 | 87 | 252 | 1.0 | 7.0 | 0.00 | 0.00 | 0.00 | 71 | 1017.6 |
| 20260507171551 | 87 | 182 | 3.0 | 10.0 | 0.00 | 0.00 | 0.00 | 70 | 1017.5 |
| 20260507171041 | 87 | 207 | 3.0 | 10.0 | 0.00 | 0.00 | 0.00 | 72 | 1017.6 |
| 20260507170541 | 87 | 196 | 2.0 | 9.0 | 0.00 | 0.00 | 0.00 | 70 | 1017.7 |
| 20260507170053 | 87 | 257 | 2.0 | 9.0 | 0.00 | 0.00 | 0.00 | 71 | 1017.7 |
| 20260507165540 | 86 | 288 | 3.0 | 10.0 | 0.00 | 0.00 | 0.00 | 72 | 1017.7 |
| 20260507165040 | 86 | 196 | 2.0 | 10.0 | 0.00 | 0.00 | 0.00 | 73 | 1017.7 |
| 20260507164604 | 86 | 195 | 3.0 | 8.0 | 0.00 | 0.00 | 0.00 | 72 | 1017.8 |
| 20260507164041 | 87 | 132 | 3.0 | 8.0 | 0.00 | 0.00 | 0.00 | 74 | 1017.7 |
| 20260507163541 | 86 | 155 | 3.0 | 8.0 | 0.00 | 0.00 | 0.00 | 76 | 1017.8 |
| 20260507163050 | 86 | 197 | 3.0 | 8.0 | 0.00 | 0.00 | 0.00 | 76 | 1017.7 |
| 20260507162540 | 86 | 157 | 3.0 | 8.0 | 0.00 | 0.00 | 0.00 | 75 | 1017.8 |
| 20260507162041 | 86 | 256 | 3.0 | 9.0 | 0.00 | 0.00 | 0.00 | 77 | 1017.7 |
| 20260507161605 | 86 | 182 | 3.0 | 9.0 | 0.00 | 0.00 | 0.00 | 76 | 1017.8 |
| 20260507161040 | 85 | 239 | 2.0 | 12.0 | 0.00 | 0.00 | 0.00 | 78 | 1017.9 |
| 20260507160540 | 85 | 178 | 4.0 | 12.0 | 0.00 | 0.00 | 0.00 | 77 | 1017.9 |
| 20260507160107 | 85 | 166 | 3.0 | 8.0 | 0.00 | 0.00 | 0.00 | 78 | 1017.8 |
| 20260507155539 | 85 | 250 | 3.0 | 8.0 | 0.00 | 0.00 | 0.00 | 77 | 1017.8 |
| 20260507155040 | 85 | 214 | 3.0 | 10.0 | 0.00 | 0.00 | 0.00 | 77 | 1018.0 |
| 20260507154550 | 86 | 190 | 3.0 | 12.0 | 0.00 | 0.00 | 0.00 | 76 | 1018.0 |
| 20260507154042 | 86 | 221 | 3.0 | 12.0 | 0.00 | 0.00 | 0.00 | 76 | 1018.0 |
| 20260507153542 | 86 | 185 | 1.0 | 10.0 | 0.00 | 0.00 | 0.00 | 78 | 1018.1 |
| 20260507153049 | 86 | 188 | 1.0 | 10.0 | 0.00 | 0.00 | 0.00 | 78 | 1018.0 |
| 20260507152540 | 85 | 201 | 3.0 | 10.0 | 0.00 | 0.00 | 0.00 | 78 | 1018.1 |
| 20260507152039 | 85 | 182 | 2.0 | 7.0 | 0.00 | 0.00 | 0.00 | 78 | 1018.1 |
| 20260507151545 | 85 | 182 | 3.0 | 9.0 | 0.00 | 0.00 | 0.00 | 78 | 1018.1 |
| 20260507151042 | 85 | 274 | 2.0 | 9.0 | 0.00 | 0.00 | 0.00 | 80 | 1018.1 |
| 20260507150550 | 84 | 163 | 2.0 | 7.0 | 0.00 | 0.00 | 0.00 | 80 | 1018.0 |
| 20260507150050 | 84 | 225 | 1.0 | 8.0 | 0.00 | 0.00 | 0.00 | 80 | 1018.1 |
| 20260507145542 | 84 | 187 | 4.0 | 8.0 | 0.00 | 0.00 | 0.00 | 80 | 1018.1 |
| 20260507145044 | 84 | 208 | 2.0 | 8.0 | 0.00 | 0.00 | 0.00 | 80 | 1018.0 |
| 20260507144558 | 84 | 133 | 2.0 | 8.0 | 0.00 | 0.00 | 0.00 | 80 | 1018.0 |
| 20260507144042 | 83 | 193 | 3.0 | 8.0 | 0.00 | 0.00 | 0.00 | 80 | 1018.1 |
| 20260507143541 | 83 | 185 | 2.0 | 8.0 | 0.00 | 0.00 | 0.00 | 81 | 1018.0 |
| 20260507143051 | 83 | 273 | 2.0 | 8.0 | 0.00 | 0.00 | 0.00 | 81 | 1018.1 |
| 20260507142541 | 82 | 246 | 2.0 | 9.0 | 0.00 | 0.00 | 0.00 | 82 | 1018.0 |
| 20260507142044 | 82 | 167 | 4.0 | 9.0 | 0.00 | 0.00 | 0.00 | 82 | 1017.9 |
| 20260507141610 | 83 | 183 | 3.0 | 9.0 | 0.00 | 0.00 | 0.00 | 82 | 1017.9 |
| 20260507141042 | 83 | 209 | 2.0 | 9.0 | 0.00 | 0.00 | 0.00 | 82 | 1017.8 |
| 20260507140542 | 83 | 194 | 3.0 | 9.0 | 0.00 | 0.00 | 0.00 | 82 | 1017.9 |
| 20260507140058 | 83 | 0 | 2.0 | 6.0 | 0.00 | 0.00 | 0.00 | 82 | 1017.8 |
| 20260507135546 | 82 | 180 | 2.0 | 7.0 | 0.00 | 0.00 | 0.00 | 83 | 1017.9 |
| 20260507135042 | 82 | 190 | 2.0 | 7.0 | 0.00 | 0.00 | 0.00 | 83 | 1017.8 |
| 20260507134551 | 81 | 216 | 1.0 | 6.0 | 0.00 | 0.00 | 0.00 | 85 | 1018.0 |
| 20260507134041 | 81 | 242 | 2.0 | 6.0 | 0.00 | 0.00 | 0.00 | 85 | 1018.0 |
| 20260507133542 | 81 | 209 | 1.0 | 4.0 | 0.00 | 0.00 | 0.00 | 85 | 1017.9 |
| 20260507133050 | 80 | 0 | 1.0 | 4.0 | 0.00 | 0.00 | 0.00 | 85 | 1017.8 |
| 20260507132541 | 80 | 0 | 0.0 | 6.0 | 0.00 | 0.00 | 0.00 | 85 | 1017.8 |
| 20260507132041 | 80 | 215 | 0.0 | 7.0 | 0.00 | 0.00 | 0.00 | 85 | 1017.7 |
| 20260507131550 | 81 | 241 | 1.0 | 7.0 | 0.00 | 0.00 | 0.00 | 84 | 1017.7 |
| 20260507131041 | 81 | 192 | 0.0 | 4.0 | 0.00 | 0.00 | 0.00 | 84 | 1017.6 |
| 20260507130541 | 81 | 0 | 0.0 | 3.0 | 0.00 | 0.00 | 0.00 | 85 | 1017.6 |
| 20260507130055 | 81 | 139 | 1.0 | 3.0 | 0.00 | 0.00 | 0.00 | 85 | 1017.6 |
| 20260507125541 | 81 | 267 | 0.0 | 3.0 | 0.00 | 0.00 | 0.00 | 85 | 1017.6 |
| 20260507125039 | 81 | 246 | 0.0 | 3.0 | 0.00 | 0.00 | 0.00 | 85 | 1017.6 |
| 20260507124547 | 81 | 127 | 0.0 | 3.0 | 0.00 | 0.00 | 0.00 | 86 | 1017.6 |
| 20260507124042 | 80 | 0 | 0.0 | 3.0 | 0.00 | 0.00 | 0.00 | 86 | 1017.6 |
| 20260507123542 | 80 | 121 | 1.0 | 3.0 | 0.00 | 0.00 | 0.00 | 86 | 1017.6 |
| 20260507123052 | 79 | 0 | 0.0 | 4.0 | 0.00 | 0.00 | 0.00 | 87 | 1017.5 |
| 20260507122541 | 79 | 124 | 1.0 | 4.0 | 0.00 | 0.00 | 0.00 | 87 | 1017.6 |
| 20260507122039 | 79 | 0 | 0.0 | 2.0 | 0.00 | 0.00 | 0.00 | 88 | 1017.6 |
| 20260507121550 | 78 | 0 | 0.0 | 3.0 | 0.00 | 0.00 | 0.00 | 90 | 1017.6 |
| 20260507121040 | 77 | 0 | 0.0 | 3.0 | 0.00 | 0.00 | 0.00 | 90 | 1017.6 |
| 20260507120539 | 77 | 107 | 0.0 | 3.0 | 0.00 | 0.00 | 0.00 | 91 | 1017.5 |
| 20260507120059 | 76 | 0 | 0.0 | 3.0 | 0.00 | 0.00 | 0.00 | 91 | 1017.6 |
| 20260507115541 | 76 | 167 | 0.0 | 3.0 | 0.00 | 0.00 | 0.00 | 92 | 1017.5 |
| 20260507115040 | 75 | 0 | 0.0 | 3.0 | 0.00 | 0.00 | 0.00 | 92 | 1017.5 |
| 20260507114553 | 75 | 0 | 0.0 | 1.0 | 0.00 | 0.00 | 0.00 | 92 | 1017.4 |
| 20260507114045 | 75 | 0 | 0.0 | 1.0 | 0.00 | 0.00 | 0.00 | 92 | 1017.4 |
| 20260507113541 | 74 | 0 | 0.0 | 0.0 | 0.00 | 0.00 | 0.00 | 92 | 1017.3 |
| 20260507113052 | 73 | 0 | 0.0 | 0.0 | 0.00 | 0.00 | 0.00 | 91 | 1017.3 |
| 20260507112541 | 73 | 0 | 0.0 | 0.0 | 0.00 | 0.00 | 0.00 | 91 | 1017.2 |
| 20260507112042 | 72 | 0 | 0.0 | 0.0 | 0.00 | 0.00 | 0.00 | 91 | 1017.1 |
| 20260507111600 | 72 | 0 | 0.0 | 0.0 | 0.00 | 0.00 | 0.00 | 91 | 1017.1 |
| 20260507111041 | 72 | 0 | 0.0 | 0.0 | 0.00 | 0.00 | 0.00 | 91 | 1017.0 |
| 20260507110539 | 71 | 0 | 0.0 | 0.0 | 0.00 | 0.00 | 0.00 | 91 | 1016.7 |
| 20260507110052 | 72 | 0 | 0.0 | 0.0 | 0.00 | 0.00 | 0.00 | 91 | 1016.7 |
| 20260507105541 | 72 | 0 | 0.0 | 0.0 | 0.00 | 0.00 | 0.00 | 91 | 1016.6 |
| 20260507105041 | 72 | 0 | 0.0 | 0.0 | 0.00 | 0.00 | 0.00 | 91 | 1016.5 |
| 20260507104549 | 71 | 0 | 0.0 | 0.0 | 0.00 | 0.00 | 0.00 | 90 | 1016.3 |
| 20260507104041 | 71 | 0 | 0.0 | 1.0 | 0.00 | 0.00 | 0.00 | 90 | 1016.4 |
| 20260507103542 | 71 | 0 | 0.0 | 1.0 | 0.00 | 0.00 | 0.00 | 90 | 1016.4 |
| 20260507103049 | 71 | 0 | 0.0 | 0.0 | 0.00 | 0.00 | 0.00 | 90 | 1016.3 |
| 20260507102541 | 71 | 0 | 0.0 | 0.0 | 0.00 | 0.00 | 0.00 | 90 | 1016.3 |
| 20260507102041 | 71 | 0 | 0.0 | 0.0 | 0.00 | 0.00 | 0.00 | 90 | 1016.3 |
| 20260507101602 | 71 | 0 | 0.0 | 0.0 | 0.00 | 0.00 | 0.00 | 90 | 1016.4 |
| 20260507101041 | 72 | 0 | 0.0 | 0.0 | 0.00 | 0.00 | 0.00 | 90 | 1016.4 |
| 20260507100541 | 72 | 0 | 0.0 | 0.0 | 0.00 | 0.00 | 0.00 | 90 | 1016.2 |
| 20260507100049 | 72 | 0 | 0.0 | 0.0 | 0.00 | 0.00 | 0.00 | 90 | 1016.1 |
| 20260507095542 | 72 | 0 | 0.0 | 0.0 | 0.00 | 0.00 | 0.00 | 90 | 1016.0 |
| 20260507095042 | 72 | 0 | 0.0 | 0.0 | 0.00 | 0.00 | 0.00 | 90 | 1016.0 |
| 20260507094549 | 72 | 0 | 0.0 | 0.0 | 0.00 | 0.00 | 0.00 | 90 | 1015.9 |
| 20260507094039 | 72 | 0 | 0.0 | 0.0 | 0.00 | 0.00 | 0.00 | 90 | 1015.8 |
| 20260507093541 | 72 | 0 | 0.0 | 0.0 | 0.00 | 0.00 | 0.00 | 90 | 1015.9 |